sat.trackr.live / text

‹ back to catalog

SHIYAN-20B (SY-20B)

NORAD 54700 · 2022-169B

PAYLOAD ACTIVE UNKNOWN

§ Identity

Operator
Country
PRC
Launch date
2022-12-12
Launch site
JSC
Launch vehicle
Mass (kg)
RCS (m²)

External: N2YO · Heavens-Above · Gunter

§ Orbital elements

Epoch: 2026-05-25T05:26:50.426592Z

Period
100.73 min
Inclination
59.9977°
Eccentricity
0.0013435
Mean motion
14.29532806 rev/d
Perigee alt
783.7 km
Apogee alt
802.9 km
Semi-major
7,171.4 km
B*
6.4850e-5
RAAN
316.3931°
Arg perigee
182.5417°
Mean anomaly
177.5552°
Rev number
18,007

§ Raw data

SHIYAN-20B (SY-20B)1 54700U 22169B   26145.22697253  .00000030  00000+0  64850-4 0  99992 54700  59.9977 316.3931 0013435 182.5417 177.5552 14.29532806180072

JSON: /api/v1/satellites/54700 · /tle

For live sub-satellite position, see the globe view (requires WebGL).

§ Visibility from observer

Set your observer location to see the next 7 days of passes ≥ 10°. The values pass through the URL so the page stays shareable.

No JS? Fill the form by hand. The geolocation button needs JavaScript.